When you browse on this site, cookies collect data to enhance your experience and personalize the content and advertising you see.
Visit our Privacy Policy to learn more. By continuing to use the site, you agree to this use of cookies and data.
  • In United Kingdom
  • List of Countries
  • For 7 days
  • Water Temperature
  • Weather Map
  • Weather Widgets
  • user-avatar
    Login

    Hourly Weather Ayacucho

    Today, 15 October, Tuesday

    Time Temperature Precipitation Wind Pressure Humidity
    00:00 +14°C° 0.1 mm 1 mps 542 mmHg 77%
    01:00 +14°C° 0.1 mm 1 mps 542 mmHg 78%
    02:00 +14°C° 0.1 mm 1 mps 541 mmHg 79%
    03:00 +14°C° 0.1 mm 1 mps 541 mmHg 81%
    04:00 +13°C° 0.1 mm 1 mps 541 mmHg 82%
    05:00 +13°C° 0 mm 1 mps 541 mmHg 80%
    06:00 +14°C° 0 mm 1 mps 542 mmHg 78%
    07:00 +14°C° 0 mm 1 mps 542 mmHg 75%
    08:00 +15°C° 0.2 mm 1 mps 543 mmHg 70%
    09:00 +16°C° 0.2 mm 1 mps 543 mmHg 65%
    10:00 +18°C° 0.2 mm 2 mps 544 mmHg 59%
    11:00 +18°C° 0.4 mm 2 mps 543 mmHg 58%
    12:00 +19°C° 0.4 mm 3 mps 543 mmHg 57%
    13:00 +19°C° 0.4 mm 3 mps 543 mmHg 55%
    14:00 +19°C° 0.5 mm 3 mps 543 mmHg 54%
    15:00 +19°C° 0.5 mm 3 mps 543 mmHg 53%
    16:00 +20°C° 0.5 mm 3 mps 543 mmHg 52%
    17:00 +18°C° 0.2 mm 3 mps 543 mmHg 58%
    18:00 +17°C° 0.2 mm 2 mps 543 mmHg 64%
    19:00 +16°C° 0.2 mm 2 mps 543 mmHg 70%
    20:00 +15°C° 0 mm 2 mps 542 mmHg 73%
    21:00 +15°C° 0 mm 1 mps 542 mmHg 75%
    22:00 +14°C° 0 mm 1 mps 542 mmHg 78%
    23:00 +14°C° 0 mm 1 mps 542 mmHg 79%

    Tomorrow, 16 October, Wednesday

    Time Temperature Precipitation Wind Pressure Humidity
    00:00 +13°C° 0 mm 1 mps 541 mmHg 81%
    01:00 +12°C° 0 mm 0 mps 541 mmHg 82%
    02:00 +12°C° 0 mm 0 mps 541 mmHg 83%
    03:00 +11°C° 0 mm 0 mps 540 mmHg 84%
    04:00 +11°C° 0 mm 0 mps 540 mmHg 85%
    05:00 +12°C° 0 mm 0 mps 541 mmHg 81%
    06:00 +12°C° 0 mm 0 mps 541 mmHg 77%
    07:00 +14°C° 0 mm 1 mps 542 mmHg 74%
    08:00 +16°C° 0 mm 1 mps 543 mmHg 67%
    09:00 +18°C° 0 mm 1 mps 543 mmHg 61%
    10:00 +19°C° 0 mm 2 mps 544 mmHg 54%
    11:00 +20°C° 0.2 mm 2 mps 544 mmHg 51%
    12:00 +20°C° 0.2 mm 2 mps 544 mmHg 48%
    13:00 +21°C° 0.2 mm 2 mps 544 mmHg 45%
    14:00 +21°C° 0.4 mm 3 mps 543 mmHg 46%
    15:00 +21°C° 0.4 mm 3 mps 543 mmHg 47%
    16:00 +21°C° 0.4 mm 4 mps 543 mmHg 48%
    17:00 +20°C° 0.5 mm 3 mps 543 mmHg 55%
    18:00 +18°C° 0.5 mm 3 mps 543 mmHg 61%
    19:00 +17°C° 0.5 mm 2 mps 543 mmHg 67%
    20:00 +16°C° 0.7 mm 2 mps 543 mmHg 70%
    21:00 +16°C° 0.7 mm 1 mps 543 mmHg 74%
    22:00 +15°C° 0.7 mm 1 mps 543 mmHg 78%
    23:00 +14°C° 1.4 mm 2 mps 542 mmHg 79%

    Day after tomorrow, 17 October, Thursday

    Time Temperature Precipitation Wind Pressure Humidity
    00:00 +14°C° 1.4 mm 2 mps 541 mmHg 79%
    01:00 +12°C° 1.4 mm 3 mps 541 mmHg 80%
    02:00 +13°C° 0.2 mm 2 mps 541 mmHg 79%
    03:00 +13°C° 0.2 mm 2 mps 541 mmHg 78%
    04:00 +13°C° 0.2 mm 1 mps 540 mmHg 77%
    05:00 +14°C° 0 mm 1 mps 541 mmHg 75%
    06:00 +13°C° 0 mm 0 mps 541 mmHg 73%
    07:00 +13°C° 0 mm 0 mps 542 mmHg 71%
    08:00 +14°C° 0.1 mm 0 mps 542 mmHg 66%
    09:00 +18°C° 0.1 mm 1 mps 543 mmHg 60%
    10:00 +19°C° 0.1 mm 1 mps 543 mmHg 55%
    11:00 +19°C° 0.3 mm 2 mps 543 mmHg 53%
    12:00 +20°C° 0.3 mm 2 mps 543 mmHg 51%
    13:00 +21°C° 0.3 mm 3 mps 543 mmHg 50%
    14:00 +20°C° 0.7 mm 3 mps 543 mmHg 55%
    15:00 +19°C° 0.7 mm 3 mps 542 mmHg 60%
    16:00 +18°C° 0.7 mm 3 mps 542 mmHg 65%
    17:00 +17°C° 1 mm 3 mps 542 mmHg 69%
    18:00 +16°C° 1 mm 2 mps 542 mmHg 73%
    19:00 +14°C° 1 mm 2 mps 541 mmHg 77%
    20:00 +14°C° 1.3 mm 2 mps 541 mmHg 79%
    21:00 +13°C° 1.3 mm 2 mps 541 mmHg 80%
    22:00 +11°C° 1.3 mm 3 mps 541 mmHg 82%
    23:00 +12°C° 0.3 mm 2 mps 541 mmHg 81%

    18 October, Friday

    Time Temperature Precipitation Wind Pressure Humidity
    00:00 +12°C° 0.3 mm 2 mps 540 mmHg 81%
    01:00 +12°C° 0.3 mm 1 mps 540 mmHg 80%
    02:00 +12°C° 0.1 mm 1 mps 540 mmHg 80%
    03:00 +12°C° 0.1 mm 1 mps 540 mmHg 80%
    04:00 +12°C° 0.1 mm 1 mps 540 mmHg 79%
    05:00 +12°C° 0.1 mm 1 mps 540 mmHg 79%
    06:00 +13°C° 0.1 mm 1 mps 540 mmHg 78%
    07:00 +12°C° 0.1 mm 0 mps 541 mmHg 77%
    08:00 +14°C° 0.2 mm 1 mps 541 mmHg 75%
    09:00 +14°C° 0.2 mm 1 mps 541 mmHg 73%
    10:00 +15°C° 0.2 mm 2 mps 542 mmHg 71%
    11:00 +16°C° 0.1 mm 2 mps 542 mmHg 68%
    12:00 +17°C° 0.1 mm 2 mps 542 mmHg 65%
    13:00 +17°C° 0.1 mm 2 mps 541 mmHg 63%
    14:00 +18°C° 0.2 mm 3 mps 541 mmHg 62%
    15:00 +18°C° 0.2 mm 3 mps 541 mmHg 61%
    16:00 +18°C° 0.2 mm 3 mps 541 mmHg 61%
    17:00 +17°C° 0.3 mm 2 mps 541 mmHg 66%
    18:00 +16°C° 0.3 mm 2 mps 541 mmHg 71%
    19:00 +15°C° 0.3 mm 1 mps 541 mmHg 76%
    20:00 +14°C° 0.5 mm 1 mps 541 mmHg 78%
    21:00 +14°C° 0.5 mm 1 mps 541 mmHg 80%
    22:00 +13°C° 0.5 mm 1 mps 541 mmHg 81%
    23:00 +13°C° 0 mm 1 mps 541 mmHg 80%

    19 October, Saturday

    Time Temperature Precipitation Wind Pressure Humidity
    00:00 +13°C° 0 mm 1 mps 541 mmHg 79%
    01:00 +13°C° 0 mm 1 mps 541 mmHg 78%
    02:00 +13°C° 0 mm 1 mps 540 mmHg 78%
    03:00 +13°C° 0 mm 1 mps 540 mmHg 78%
    04:00 +12°C° 0 mm 0 mps 540 mmHg 78%
    05:00 +12°C° 0.2 mm 0 mps 541 mmHg 78%
    06:00 +12°C° 0.2 mm 0 mps 541 mmHg 77%
    07:00 +14°C° 0.2 mm 1 mps 542 mmHg 77%
    08:00 +14°C° 0.5 mm 1 mps 541 mmHg 76%
    09:00 +14°C° 0.5 mm 1 mps 541 mmHg 76%
    10:00 +15°C° 0.5 mm 1 mps 541 mmHg 75%
    11:00 +15°C° 0.4 mm 2 mps 541 mmHg 72%
    12:00 +16°C° 0.4 mm 2 mps 541 mmHg 70%
    13:00 +17°C° 0.4 mm 3 mps 541 mmHg 67%
    14:00 +17°C° 0.5 mm 2 mps 541 mmHg 67%
    15:00 +17°C° 0.5 mm 2 mps 541 mmHg 66%
    16:00 +18°C° 0.5 mm 1 mps 541 mmHg 66%
    17:00 +16°C° 1.3 mm 1 mps 541 mmHg 71%
    18:00 +15°C° 1.3 mm 1 mps 541 mmHg 77%
    19:00 +14°C° 1.3 mm 1 mps 541 mmHg 82%
    20:00 +14°C° 0.3 mm 1 mps 541 mmHg 83%
    21:00 +13°C° 0.3 mm 1 mps 541 mmHg 85%
    22:00 +12°C° 0.3 mm 0 mps 541 mmHg 86%
    23:00 +12°C° 0 mm 0 mps 541 mmHg 87%

    20 October, Sunday

    Time Temperature Precipitation Wind Pressure Humidity
    00:00 +11°C° 0 mm 0 mps 540 mmHg 87%
    01:00 +11°C° 0 mm 0 mps 540 mmHg 88%
    02:00 +11°C° 0 mm 0 mps 540 mmHg 87%
    03:00 +11°C° 0 mm 0 mps 539 mmHg 87%
    04:00 +11°C° 0 mm 0 mps 539 mmHg 86%
    05:00 +11°C° 0 mm 0 mps 540 mmHg 83%
    06:00 +12°C° 0 mm 0 mps 540 mmHg 80%
    07:00 +12°C° 0 mm 0 mps 541 mmHg 77%
    08:00 +13°C° 0 mm 0 mps 541 mmHg 70%
    09:00 +16°C° 0 mm 1 mps 542 mmHg 64%
    10:00 +18°C° 0 mm 1 mps 542 mmHg 58%
    11:00 +19°C° 0.1 mm 1 mps 543 mmHg 53%
    12:00 +20°C° 0.1 mm 1 mps 543 mmHg 48%
    13:00 +22°C° 0.1 mm 1 mps 543 mmHg 42%
    14:00 +22°C° 0.1 mm 1 mps 542 mmHg 42%
    15:00 +21°C° 0.1 mm 2 mps 542 mmHg 43%
    16:00 +21°C° 0.1 mm 2 mps 542 mmHg 43%
    17:00 +19°C° 0.2 mm 2 mps 542 mmHg 52%
    18:00 +18°C° 0.2 mm 2 mps 542 mmHg 61%
    19:00 +17°C° 0.2 mm 2 mps 541 mmHg 70%
    20:00 +16°C° 0.2 mm 2 mps 541 mmHg 73%
    21:00 +15°C° 0.2 mm 2 mps 541 mmHg 76%
    22:00 +14°C° 0.2 mm 1 mps 542 mmHg 79%
    23:00 +14°C° 0 mm 1 mps 541 mmHg 80%
    Show more